GMA125 EGPF-BIRK

Flight info

Callsign GMA125
Flight time 2h 53m
Altitude 30000
Route CLYDE DCT BILLY DCT BARKU DCT RATSU/M045F300 DCT ALDAN DCT VM
Aircraft BE20/L-SBGRY/S

Departure

Time 2026-05-07 09:36
Airport Glasgow Airport (EGPF)

Arrival

Time 2026-05-07 12:29
Airport Reykjavík Domestic Airport (BIRK)
Time Latitude Longitude Altitude Speed Heading
2026-05-07 09:20 55.87195 -4.42534 27 ft 0 kts 20°
2026-05-07 09:30 55.87197 -4.42533 24 ft 0 kts 12°
2026-05-07 09:30 55.87203 -4.42535 24 ft 3 kts 341°
2026-05-07 09:31 55.87205 -4.42538 24 ft 0 kts 326°
2026-05-07 09:31 55.87212 -4.42571 25 ft 7 kts 288°
2026-05-07 09:31 55.87243 -4.42683 24 ft 8 kts
2026-05-07 09:32 55.87327 -4.42635 27 ft 17 kts 19°
2026-05-07 09:32 55.87380 -4.42598 25 ft 12 kts 28°
2026-05-07 09:32 55.87451 -4.42477 24 ft 14 kts 46°
2026-05-07 09:32 55.87533 -4.42321 24 ft 19 kts 47°
2026-05-07 09:33 55.87601 -4.42194 24 ft 13 kts 46°
2026-05-07 09:33 55.87669 -4.42069 24 ft 18 kts 46°
2026-05-07 09:33 55.87743 -4.41930 24 ft 13 kts 45°
2026-05-07 09:33 55.87824 -4.41850 24 ft 14 kts 11°
2026-05-07 09:34 55.87919 -4.41901 25 ft 10 kts 306°
2026-05-07 09:34 55.87911 -4.41989 24 ft 0 kts 223°
2026-05-07 09:34 55.87909 -4.41993 24 ft 4 kts 224°
2026-05-07 09:35 55.87773 -4.42250 24 ft 61 kts 227°
2026-05-07 09:35 55.87337 -4.43062 25 ft 117 kts 226°
2026-05-07 09:35 55.86715 -4.44266 178 ft 141 kts 226°
2026-05-07 09:35 55.86044 -4.45632 614 ft 154 kts 225°
2026-05-07 09:36 55.85270 -4.47150 895 ft 173 kts 223°
2026-05-07 09:36 55.84452 -4.48721 1412 ft 173 kts 224°
2026-05-07 09:36 55.83592 -4.50191 1934 ft 171 kts 219°
2026-05-07 09:36 55.82731 -4.51662 2461 ft 171 kts 221°
2026-05-07 09:37 55.81900 -4.53176 2979 ft 171 kts 223°
2026-05-07 09:37 55.81089 -4.54718 3485 ft 170 kts 229°
2026-05-07 09:37 55.80477 -4.56530 3997 ft 172 kts 243°
2026-05-07 09:37 55.80142 -4.58591 4517 ft 176 kts 256°
2026-05-07 09:38 55.80121 -4.60795 5036 ft 182 kts 270°
2026-05-07 09:38 55.80447 -4.63011 5554 ft 190 kts 286°
2026-05-07 09:38 55.81137 -4.65054 6073 ft 197 kts 303°
2026-05-07 09:38 55.82173 -4.66711 6587 ft 205 kts 321°
2026-05-07 09:39 55.83457 -4.67886 7090 ft 209 kts 328°
2026-05-07 09:39 55.84769 -4.69026 7581 ft 211 kts 328°
2026-05-07 09:39 55.86090 -4.70168 8088 ft 210 kts 328°
2026-05-07 09:39 55.87403 -4.71288 8612 ft 208 kts 328°
2026-05-07 09:40 55.88704 -4.72399 9130 ft 207 kts 328°
2026-05-07 09:40 55.89998 -4.73506 9662 ft 206 kts 328°
2026-05-07 09:40 55.91289 -4.74613 10160 ft 206 kts 328°
2026-05-07 09:40 55.92579 -4.75719 10628 ft 206 kts 328°
2026-05-07 09:41 55.93868 -4.76825 11127 ft 205 kts 328°
2026-05-07 09:41 55.95157 -4.77931 11632 ft 206 kts 328°
2026-05-07 09:41 55.96430 -4.79024 12141 ft 206 kts 328°
2026-05-07 09:41 55.97743 -4.80153 12672 ft 207 kts 328°
2026-05-07 09:42 55.99047 -4.81274 13205 ft 209 kts 328°
2026-05-07 09:42 56.00347 -4.82393 13747 ft 211 kts 328°
2026-05-07 09:42 56.01675 -4.83537 14229 ft 213 kts 328°
2026-05-07 09:42 56.03010 -4.84686 14718 ft 213 kts 328°
2026-05-07 09:43 56.04337 -4.85830 15214 ft 210 kts 327°
2026-05-07 09:43 56.05649 -4.86961 15712 ft 208 kts 327°
2026-05-07 09:43 56.06942 -4.88079 16214 ft 205 kts 327°
2026-05-07 09:43 56.08217 -4.89180 16722 ft 202 kts 326°
2026-05-07 09:44 56.09469 -4.90263 17233 ft 198 kts 326°
2026-05-07 09:44 56.10698 -4.91328 17758 ft 195 kts 325°
2026-05-07 09:44 56.11909 -4.92378 18280 ft 192 kts 325°
2026-05-07 09:44 56.13101 -4.93412 18741 ft 189 kts 324°
2026-05-07 09:45 56.14271 -4.94428 19211 ft 186 kts 324°
2026-05-07 09:45 56.15426 -4.95431 19685 ft 182 kts 324°
2026-05-07 09:45 56.16555 -4.96412 20164 ft 178 kts 323°
2026-05-07 09:45 56.17656 -4.97369 20646 ft 173 kts 323°
2026-05-07 09:46 56.18727 -4.98301 21140 ft 168 kts 323°
2026-05-07 09:46 56.19769 -4.99211 21623 ft 166 kts 322°
2026-05-07 09:46 56.20820 -5.00133 22027 ft 170 kts 322°
2026-05-07 09:46 56.21890 -5.01068 22430 ft 172 kts 322°
2026-05-07 09:47 56.22973 -5.02010 22846 ft 174 kts 321°
2026-05-07 09:47 56.24064 -5.02960 23268 ft 175 kts 321°
2026-05-07 09:47 56.25161 -5.03918 23649 ft 176 kts 321°
2026-05-07 09:47 56.26267 -5.04883 23997 ft 177 kts 321°
2026-05-07 09:48 56.27368 -5.05844 24355 ft 175 kts 321°
2026-05-07 09:48 56.28465 -5.06804 24712 ft 176 kts 321°
2026-05-07 09:48 56.29563 -5.07766 25072 ft 176 kts 321°
2026-05-07 09:48 56.30661 -5.08728 25436 ft 175 kts 321°
2026-05-07 09:49 56.31745 -5.09676 25792 ft 171 kts 321°
2026-05-07 09:49 56.32805 -5.10605 26148 ft 168 kts 320°
2026-05-07 09:49 56.33905 -5.11587 26206 ft 186 kts 321°
2026-05-07 09:49 56.35116 -5.12656 26273 ft 202 kts 323°
2026-05-07 09:50 56.36426 -5.13803 26367 ft 216 kts 324°
2026-05-07 09:50 56.37815 -5.15016 26529 ft 225 kts 324°
2026-05-07 09:50 56.39231 -5.16253 26815 ft 227 kts 324°
2026-05-07 09:50 56.40660 -5.17508 27092 ft 229 kts 324°
2026-05-07 09:51 56.42099 -5.18779 27383 ft 231 kts 324°
2026-05-07 09:51 56.43555 -5.20065 27662 ft 235 kts 324°
2026-05-07 09:51 56.45029 -5.21366 27937 ft 236 kts 324°
2026-05-07 09:51 56.46510 -5.22673 28208 ft 237 kts 324°
2026-05-07 09:52 56.47994 -5.23987 28525 ft 238 kts 323°
2026-05-07 09:52 56.49486 -5.25308 28804 ft 239 kts 322°
2026-05-07 09:52 56.50979 -5.26631 29084 ft 239 kts 323°
2026-05-07 09:52 56.52476 -5.27958 29365 ft 239 kts 323°
2026-05-07 09:53 56.53971 -5.29285 29657 ft 239 kts 322°
2026-05-07 09:53 56.55464 -5.30613 29909 ft 240 kts 322°
2026-05-07 09:53 56.56997 -5.31987 29911 ft 251 kts 323°
2026-05-07 09:53 56.58569 -5.33389 29918 ft 259 kts 323°
2026-05-07 09:54 56.60210 -5.34846 29912 ft 266 kts 324°
2026-05-07 09:54 56.61889 -5.36339 29913 ft 271 kts 324°
2026-05-07 09:54 56.63594 -5.37859 29908 ft 275 kts 324°
2026-05-07 09:54 56.65317 -5.39400 29905 ft 278 kts 324°
2026-05-07 09:55 56.67059 -5.40958 29906 ft 280 kts 324°
2026-05-07 09:55 56.68812 -5.42527 29905 ft 281 kts 324°
2026-05-07 09:55 56.70577 -5.44109 29896 ft 284 kts 324°
2026-05-07 09:55 56.72351 -5.45700 29927 ft 285 kts 324°
2026-05-07 09:56 56.74130 -5.47300 29898 ft 285 kts 324°
2026-05-07 09:56 56.75916 -5.48905 29892 ft 286 kts 324°
2026-05-07 09:56 56.77703 -5.50515 29892 ft 287 kts 323°
2026-05-07 09:56 56.79493 -5.52128 29888 ft 287 kts 324°
2026-05-07 09:57 56.81282 -5.53742 29884 ft 287 kts 323°
2026-05-07 09:57 56.83075 -5.55362 29878 ft 287 kts 323°
2026-05-07 09:57 56.84870 -5.56986 29879 ft 288 kts 323°
2026-05-07 09:57 56.86671 -5.58617 29876 ft 289 kts 324°
2026-05-07 09:58 56.88468 -5.60242 29875 ft 287 kts 323°
2026-05-07 09:58 56.90258 -5.61867 29876 ft 288 kts 323°
2026-05-07 09:58 56.92044 -5.63489 29868 ft 286 kts 323°
2026-05-07 09:58 56.93821 -5.65105 29852 ft 285 kts 323°
2026-05-07 09:59 56.95588 -5.66714 29863 ft 284 kts 323°
2026-05-07 09:59 56.97358 -5.68329 29861 ft 285 kts 323°
2026-05-07 09:59 56.99130 -5.69946 29863 ft 286 kts 322°
2026-05-07 09:59 57.00911 -5.71571 29868 ft 286 kts 322°
2026-05-07 10:00 57.02691 -5.73197 29868 ft 286 kts 322°
2026-05-07 10:00 57.04474 -5.74830 29865 ft 286 kts 322°
2026-05-07 10:00 57.06257 -5.76463 29867 ft 287 kts 322°
2026-05-07 10:00 57.08023 -5.78083 29865 ft 288 kts 322°
2026-05-07 10:01 57.09813 -5.79726 29860 ft 288 kts 322°
2026-05-07 10:01 57.11603 -5.81370 29861 ft 287 kts 322°
2026-05-07 10:01 57.13390 -5.83014 29861 ft 287 kts 322°
2026-05-07 10:01 57.15178 -5.84661 29854 ft 287 kts 322°
2026-05-07 10:02 57.16963 -5.86308 29855 ft 287 kts 322°
2026-05-07 10:02 57.18748 -5.87956 29856 ft 287 kts 322°
2026-05-07 10:02 57.20535 -5.89607 29857 ft 287 kts 322°
2026-05-07 10:02 57.22322 -5.91261 29856 ft 287 kts 322°
2026-05-07 10:03 57.24108 -5.92914 29867 ft 287 kts 322°
2026-05-07 10:03 57.25895 -5.94572 29847 ft 287 kts 322°
2026-05-07 10:03 57.27679 -5.96226 29851 ft 287 kts 321°
2026-05-07 10:03 57.29463 -5.97884 29849 ft 288 kts 321°
2026-05-07 10:04 57.31255 -5.99552 29840 ft 288 kts 321°
2026-05-07 10:04 57.33043 -6.01216 29840 ft 288 kts 321°
2026-05-07 10:04 57.34832 -6.02882 29831 ft 287 kts 321°
2026-05-07 10:04 57.36617 -6.04549 29833 ft 288 kts 321°
2026-05-07 10:05 57.38404 -6.06220 29833 ft 288 kts 321°
2026-05-07 10:05 57.40193 -6.07893 29834 ft 288 kts 321°
2026-05-07 10:05 57.41982 -6.09567 29833 ft 288 kts 321°
2026-05-07 10:05 57.43768 -6.11240 29833 ft 287 kts 321°
2026-05-07 10:06 57.45553 -6.12916 29827 ft 287 kts 321°
2026-05-07 10:06 57.47334 -6.14588 29825 ft 286 kts 321°
2026-05-07 10:06 57.49109 -6.16258 29827 ft 286 kts 320°
2026-05-07 10:06 57.50888 -6.17934 29837 ft 287 kts 320°
2026-05-07 10:07 57.52668 -6.19612 29829 ft 287 kts 320°
2026-05-07 10:07 57.54447 -6.21289 29828 ft 286 kts 320°
2026-05-07 10:07 57.56197 -6.22941 29828 ft 285 kts 320°
2026-05-07 10:07 57.57961 -6.24609 29825 ft 284 kts 320°
2026-05-07 10:08 57.59743 -6.26296 29816 ft 283 kts 319°
2026-05-07 10:08 57.61497 -6.27960 29814 ft 283 kts 319°
2026-05-07 10:08 57.63226 -6.29601 29814 ft 283 kts 319°
2026-05-07 10:08 57.64984 -6.31271 29813 ft 284 kts 320°
2026-05-07 10:09 57.66745 -6.32946 29810 ft 284 kts 319°
2026-05-07 10:09 57.68508 -6.34622 29811 ft 284 kts 319°
2026-05-07 10:09 57.70271 -6.36303 29812 ft 285 kts 319°
2026-05-07 10:09 57.72037 -6.37988 29814 ft 285 kts 319°
2026-05-07 10:10 57.73803 -6.39674 29814 ft 285 kts 319°
2026-05-07 10:10 57.75565 -6.41358 29814 ft 285 kts 319°
2026-05-07 10:10 57.77334 -6.43052 29807 ft 286 kts 319°
2026-05-07 10:10 57.79103 -6.44748 29809 ft 286 kts 319°
2026-05-07 10:11 57.80876 -6.46446 29806 ft 286 kts 319°
2026-05-07 10:11 57.82645 -6.48144 29806 ft 285 kts 319°
2026-05-07 10:11 57.84411 -6.49843 29807 ft 285 kts 319°
2026-05-07 10:11 57.86178 -6.51544 29806 ft 285 kts 319°
2026-05-07 10:12 57.87940 -6.53242 29804 ft 285 kts 319°
2026-05-07 10:12 57.89705 -6.54944 29803 ft 285 kts 319°
2026-05-07 10:12 57.91468 -6.56646 29802 ft 285 kts 319°
2026-05-07 10:12 57.93233 -6.58352 29805 ft 285 kts 319°
2026-05-07 10:13 57.94996 -6.60060 29801 ft 286 kts 319°
2026-05-07 10:13 57.96765 -6.61774 29795 ft 286 kts 319°
2026-05-07 10:13 57.98533 -6.63487 29788 ft 286 kts 319°
2026-05-07 10:13 58.00297 -6.65199 29787 ft 284 kts 319°
2026-05-07 10:14 58.02056 -6.66911 29789 ft 285 kts 319°
2026-05-07 10:14 58.03825 -6.68634 29786 ft 287 kts 318°
2026-05-07 10:14 58.05597 -6.70360 29789 ft 286 kts 319°
2026-05-07 10:14 58.07365 -6.72082 29793 ft 286 kts 318°
2026-05-07 10:15 58.09133 -6.73808 29777 ft 286 kts 318°
2026-05-07 10:15 58.10899 -6.75535 29778 ft 286 kts 318°
2026-05-07 10:15 58.12662 -6.77261 29782 ft 286 kts 318°
2026-05-07 10:15 58.14429 -6.78993 29779 ft 286 kts 318°
2026-05-07 10:16 58.16192 -6.80721 29778 ft 286 kts 318°
2026-05-07 10:16 58.17956 -6.82453 29775 ft 285 kts 318°
2026-05-07 10:16 58.19716 -6.84184 29771 ft 285 kts 318°
2026-05-07 10:16 58.21480 -6.85922 29767 ft 287 kts 318°
2026-05-07 10:17 58.23255 -6.87673 29778 ft 288 kts 318°
2026-05-07 10:17 58.25037 -6.89428 29767 ft 289 kts 318°
2026-05-07 10:17 58.26823 -6.91191 29770 ft 290 kts 318°
2026-05-07 10:17 58.28612 -6.92959 29768 ft 290 kts 318°
2026-05-07 10:18 58.30386 -6.94717 29752 ft 292 kts 319°
2026-05-07 10:18 58.32188 -6.96502 29752 ft 292 kts 319°
2026-05-07 10:18 58.33985 -6.98282 29751 ft 291 kts 319°
2026-05-07 10:18 58.35780 -7.00065 29752 ft 291 kts 318°
2026-05-07 10:19 58.37574 -7.01850 29750 ft 291 kts 319°
2026-05-07 10:19 58.39369 -7.03636 29749 ft 290 kts 318°
2026-05-07 10:19 58.41157 -7.05417 29740 ft 290 kts 318°
2026-05-07 10:19 58.42942 -7.07200 29740 ft 290 kts 318°
2026-05-07 10:20 58.44730 -7.08987 29743 ft 290 kts 318°
2026-05-07 10:20 58.46519 -7.10776 29743 ft 291 kts 318°
2026-05-07 10:20 58.47707 -7.11967 29744 ft 291 kts 318°
2026-05-07 10:20 58.49500 -7.13761 29741 ft 291 kts 318°
2026-05-07 10:21 58.51290 -7.15554 29736 ft 290 kts 318°
2026-05-07 10:21 58.53072 -7.17344 29734 ft 289 kts 318°
2026-05-07 10:21 58.54846 -7.19130 29728 ft 288 kts 318°
2026-05-07 10:21 58.56624 -7.20922 29732 ft 289 kts 318°
2026-05-07 10:22 58.58406 -7.22718 29730 ft 289 kts 318°
2026-05-07 10:22 58.60185 -7.24511 29726 ft 289 kts 318°
2026-05-07 10:22 58.61960 -7.26303 29730 ft 288 kts 318°
2026-05-07 10:22 58.63734 -7.28099 29728 ft 289 kts 318°
2026-05-07 10:23 58.65512 -7.29902 29717 ft 289 kts 318°
2026-05-07 10:23 58.67287 -7.31698 29714 ft 288 kts 318°
2026-05-07 10:23 58.69058 -7.33494 29715 ft 287 kts 318°
2026-05-07 10:23 58.70824 -7.35289 29711 ft 287 kts 318°
2026-05-07 10:24 58.72588 -7.37085 29709 ft 287 kts 318°
2026-05-07 10:24 58.74351 -7.38880 29710 ft 286 kts 318°
2026-05-07 10:24 58.76112 -7.40676 29711 ft 286 kts 318°
2026-05-07 10:24 58.77871 -7.42472 29707 ft 286 kts 318°
2026-05-07 10:25 58.79632 -7.44271 29710 ft 286 kts 318°
2026-05-07 10:25 58.81389 -7.46069 29731 ft 286 kts 318°
2026-05-07 10:25 58.83151 -7.47876 29715 ft 287 kts 318°
2026-05-07 10:25 58.84914 -7.49683 29719 ft 287 kts 318°
2026-05-07 10:26 58.86682 -7.51498 29716 ft 288 kts 318°
2026-05-07 10:26 58.88451 -7.53316 29715 ft 288 kts 318°
2026-05-07 10:26 58.90217 -7.55132 29715 ft 287 kts 318°
2026-05-07 10:26 58.91979 -7.56947 29714 ft 287 kts 318°
2026-05-07 10:27 58.93738 -7.58762 29708 ft 286 kts 318°
2026-05-07 10:27 58.95495 -7.60578 29707 ft 286 kts 318°
2026-05-07 10:27 58.97252 -7.62394 29706 ft 286 kts 318°
2026-05-07 10:27 58.99006 -7.64209 29707 ft 286 kts 318°
2026-05-07 10:28 59.00763 -7.66032 29697 ft 287 kts 319°
2026-05-07 10:28 59.02525 -7.67860 29697 ft 287 kts 319°
2026-05-07 10:28 59.04288 -7.69689 29689 ft 287 kts 319°
2026-05-07 10:28 59.06049 -7.71520 29689 ft 287 kts 319°
2026-05-07 10:29 59.07810 -7.73355 29689 ft 287 kts 319°
2026-05-07 10:29 59.09570 -7.75191 29689 ft 288 kts 319°
2026-05-07 10:29 59.11337 -7.77034 29690 ft 288 kts 319°
2026-05-07 10:30 59.14843 -7.80698 29684 ft 288 kts 319°
2026-05-07 10:30 59.16605 -7.82544 29684 ft 288 kts 319°
2026-05-07 10:30 59.18365 -7.84389 29684 ft 287 kts 319°
2026-05-07 10:30 59.20128 -7.86240 29684 ft 287 kts 319°
2026-05-07 10:31 59.21887 -7.88089 29687 ft 287 kts 319°
2026-05-07 10:31 59.23648 -7.89942 29687 ft 287 kts 319°
2026-05-07 10:31 59.25406 -7.91794 29679 ft 287 kts 319°
2026-05-07 10:31 59.27165 -7.93650 29679 ft 287 kts 319°
2026-05-07 10:32 59.28924 -7.95506 29679 ft 287 kts 319°
2026-05-07 10:32 59.30682 -7.97365 29679 ft 287 kts 319°
2026-05-07 10:32 59.32438 -7.99225 29679 ft 287 kts 319°
2026-05-07 10:32 59.34197 -8.01089 29679 ft 287 kts 319°
2026-05-07 10:33 59.35954 -8.02953 29687 ft 288 kts 320°
2026-05-07 10:33 59.37718 -8.04828 29667 ft 288 kts 320°
2026-05-07 10:33 59.39483 -8.06704 29664 ft 288 kts 320°
2026-05-07 10:33 59.41245 -8.08579 29668 ft 288 kts 320°
2026-05-07 10:34 59.43005 -8.10455 29659 ft 288 kts 320°
2026-05-07 10:34 59.44764 -8.12334 29668 ft 288 kts 320°
2026-05-07 10:34 59.46523 -8.14214 29662 ft 288 kts 320°
2026-05-07 10:34 59.48282 -8.16096 29665 ft 288 kts 320°
2026-05-07 10:35 59.50040 -8.17978 29653 ft 288 kts 320°
2026-05-07 10:35 59.51799 -8.19865 29665 ft 288 kts 320°
2026-05-07 10:35 59.53555 -8.21750 29659 ft 288 kts 320°
2026-05-07 10:35 59.55310 -8.23638 29665 ft 288 kts 320°
2026-05-07 10:36 59.57067 -8.25529 29656 ft 288 kts 320°
2026-05-07 10:36 59.58821 -8.27419 29657 ft 287 kts 320°
2026-05-07 10:36 59.60576 -8.29313 29659 ft 287 kts 320°
2026-05-07 10:36 59.62332 -8.31209 29699 ft 287 kts 320°
2026-05-07 10:37 59.64093 -8.33115 29657 ft 289 kts 320°
2026-05-07 10:37 59.65855 -8.35022 29659 ft 289 kts 320°
2026-05-07 10:37 59.67592 -8.36904 29659 ft 288 kts 320°
2026-05-07 10:37 59.69352 -8.38814 29653 ft 288 kts 320°
2026-05-07 10:38 59.71110 -8.40725 29644 ft 288 kts 320°
2026-05-07 10:38 59.72867 -8.42638 29644 ft 288 kts 320°
2026-05-07 10:38 59.74624 -8.44552 29644 ft 288 kts 320°
2026-05-07 10:38 59.76380 -8.46467 29645 ft 288 kts 320°
2026-05-07 10:39 59.78136 -8.48384 29644 ft 288 kts 320°
2026-05-07 10:39 59.79891 -8.50303 29642 ft 288 kts 320°
2026-05-07 10:39 59.81645 -8.52223 29642 ft 288 kts 320°
2026-05-07 10:39 59.83400 -8.54146 29643 ft 288 kts 320°
2026-05-07 10:40 59.85154 -8.56071 29642 ft 288 kts 320°
2026-05-07 10:40 59.86908 -8.57998 29643 ft 288 kts 320°
2026-05-07 10:40 59.88663 -8.59929 29648 ft 289 kts 319°
2026-05-07 10:40 59.90430 -8.61880 29632 ft 291 kts 319°
2026-05-07 10:41 59.92206 -8.63836 29635 ft 292 kts 319°
2026-05-07 10:41 59.93986 -8.65797 29636 ft 292 kts 319°
2026-05-07 10:41 59.95764 -8.67764 29636 ft 292 kts 319°
2026-05-07 10:41 59.97544 -8.69735 29637 ft 293 kts 319°
2026-05-07 10:42 59.99325 -8.71707 29635 ft 293 kts 319°
2026-05-07 10:42 60.01104 -8.73681 29635 ft 293 kts 319°
2026-05-07 10:42 60.02885 -8.75660 29636 ft 293 kts 319°
2026-05-07 10:42 60.04667 -8.77642 29636 ft 293 kts 319°
2026-05-07 10:43 60.06446 -8.79623 29631 ft 293 kts 319°
2026-05-07 10:43 60.08229 -8.81611 29631 ft 293 kts 319°
2026-05-07 10:43 60.10008 -8.83597 29631 ft 293 kts 319°
2026-05-07 10:43 60.11788 -8.85587 29626 ft 293 kts 319°
2026-05-07 10:44 60.13568 -8.87579 29629 ft 293 kts 319°
2026-05-07 10:44 60.15325 -8.89549 29629 ft 293 kts 319°
2026-05-07 10:44 60.17128 -8.91574 29625 ft 295 kts 319°
2026-05-07 10:44 60.18899 -8.93564 29623 ft 296 kts 319°
2026-05-07 10:45 60.20697 -8.95585 29621 ft 296 kts 319°
2026-05-07 10:45 60.22495 -8.97609 29621 ft 296 kts 319°
2026-05-07 10:45 60.24294 -8.99638 29622 ft 297 kts 319°
2026-05-07 10:45 60.26096 -9.01672 29623 ft 297 kts 319°
2026-05-07 10:46 60.27897 -9.03708 29620 ft 297 kts 319°
2026-05-07 10:46 60.29698 -9.05747 29621 ft 297 kts 319°
2026-05-07 10:46 60.31500 -9.07791 29621 ft 297 kts 319°
2026-05-07 10:46 60.33303 -9.09836 29619 ft 297 kts 319°
2026-05-07 10:47 60.35104 -9.11883 29622 ft 297 kts 319°
2026-05-07 10:47 60.36905 -9.13932 29622 ft 297 kts 319°
2026-05-07 10:47 60.38707 -9.15985 29623 ft 297 kts 319°
2026-05-07 10:47 60.40506 -9.18038 29623 ft 297 kts 319°
2026-05-07 10:48 60.42307 -9.20095 29614 ft 297 kts 319°
2026-05-07 10:48 60.44107 -9.22155 29615 ft 298 kts 319°
2026-05-07 10:48 60.45917 -9.24228 29611 ft 299 kts 319°
2026-05-07 10:48 60.47729 -9.26305 29610 ft 299 kts 319°
2026-05-07 10:49 60.49542 -9.28385 29613 ft 300 kts 319°
2026-05-07 10:49 60.51356 -9.30471 29611 ft 300 kts 319°
2026-05-07 10:49 60.53170 -9.32559 29613 ft 300 kts 319°
2026-05-07 10:49 60.54985 -9.34651 29614 ft 300 kts 319°
2026-05-07 10:50 60.56799 -9.36745 29613 ft 300 kts 319°
2026-05-07 10:50 60.58615 -9.38843 29614 ft 300 kts 319°
2026-05-07 10:50 60.60424 -9.40954 29611 ft 297 kts 316°
2026-05-07 10:50 60.62089 -9.43341 29614 ft 291 kts 311°
2026-05-07 10:51 60.63725 -9.45779 29615 ft 292 kts 311°
2026-05-07 10:51 60.65372 -9.48212 29619 ft 293 kts 312°
2026-05-07 10:51 60.67025 -9.50644 29618 ft 293 kts 312°
2026-05-07 10:51 60.68674 -9.53078 29620 ft 293 kts 312°
2026-05-07 10:52 60.70324 -9.55523 29661 ft 293 kts 312°
2026-05-07 10:52 60.71981 -9.57985 29614 ft 295 kts 312°
2026-05-07 10:52 60.73651 -9.60464 29611 ft 298 kts 313°
2026-05-07 10:52 60.75329 -9.62955 29610 ft 298 kts 313°
2026-05-07 10:53 60.77009 -9.65451 29616 ft 299 kts 313°
2026-05-07 10:53 60.78668 -9.67923 29617 ft 299 kts 313°
2026-05-07 10:53 60.80348 -9.70431 29618 ft 299 kts 313°
2026-05-07 10:53 60.82029 -9.72943 29619 ft 299 kts 313°
2026-05-07 10:54 60.83712 -9.75460 29616 ft 299 kts 313°
2026-05-07 10:54 60.85393 -9.77978 29617 ft 299 kts 313°
2026-05-07 10:54 60.87076 -9.80502 29620 ft 299 kts 313°
2026-05-07 10:54 60.88756 -9.83026 29620 ft 300 kts 313°
2026-05-07 10:55 60.90438 -9.85556 29623 ft 300 kts 313°
2026-05-07 10:55 60.92119 -9.88088 29623 ft 300 kts 313°
2026-05-07 10:55 60.93799 -9.90620 29624 ft 300 kts 312°
2026-05-07 10:55 60.95479 -9.93158 29624 ft 300 kts 312°
2026-05-07 10:56 60.97158 -9.95695 29657 ft 300 kts 313°
2026-05-07 10:56 60.98838 -9.98256 29622 ft 299 kts 311°
2026-05-07 10:56 61.00253 -10.01228 29628 ft 285 kts 296°
2026-05-07 10:56 61.01270 -10.04634 29624 ft 277 kts 288°
2026-05-07 10:57 61.02213 -10.08097 29630 ft 277 kts 289°
2026-05-07 10:57 61.03165 -10.11566 29629 ft 278 kts 289°
2026-05-07 10:57 61.04116 -10.15041 29631 ft 278 kts 288°
2026-05-07 10:57 61.05064 -10.18522 29629 ft 278 kts 288°
2026-05-07 10:58 61.06011 -10.22007 29627 ft 278 kts 288°
2026-05-07 10:58 61.06959 -10.25495 29641 ft 278 kts 288°
2026-05-07 10:58 61.07905 -10.28983 29642 ft 278 kts 288°
2026-05-07 10:58 61.08851 -10.32475 29642 ft 278 kts 288°
2026-05-07 10:59 61.09795 -10.35968 29642 ft 279 kts 288°
2026-05-07 10:59 61.10739 -10.39464 29642 ft 279 kts 288°
2026-05-07 10:59 61.11682 -10.42963 29640 ft 279 kts 288°
2026-05-07 10:59 61.12626 -10.46473 29635 ft 281 kts 290°
2026-05-07 11:00 61.13574 -10.50001 29636 ft 281 kts 289°
2026-05-07 11:00 61.14522 -10.53533 29636 ft 281 kts 289°
2026-05-07 11:00 61.15470 -10.57069 29634 ft 281 kts 289°
2026-05-07 11:00 61.16417 -10.60611 29651 ft 281 kts 289°
2026-05-07 11:01 61.17362 -10.64152 29652 ft 281 kts 289°
2026-05-07 11:01 61.18307 -10.67695 29652 ft 281 kts 290°
2026-05-07 11:01 61.19251 -10.71242 29652 ft 281 kts 290°
2026-05-07 11:01 61.20194 -10.74792 29652 ft 281 kts 290°
2026-05-07 11:02 61.21137 -10.78344 29652 ft 281 kts 290°
2026-05-07 11:02 61.22080 -10.81906 29652 ft 281 kts 290°
2026-05-07 11:02 61.23022 -10.85465 29653 ft 281 kts 290°
2026-05-07 11:02 61.23963 -10.89027 29652 ft 281 kts 290°
2026-05-07 11:03 61.24903 -10.92592 29656 ft 281 kts 290°
2026-05-07 11:03 61.25841 -10.96159 29684 ft 281 kts 289°
2026-05-07 11:03 61.26780 -10.99728 29684 ft 281 kts 289°
2026-05-07 11:03 61.27717 -11.03299 29685 ft 281 kts 289°
2026-05-07 11:04 61.28652 -11.06870 29682 ft 281 kts 290°
2026-05-07 11:04 61.29588 -11.10447 29681 ft 281 kts 290°
2026-05-07 11:04 61.30522 -11.14025 29681 ft 281 kts 289°
2026-05-07 11:04 61.31455 -11.17604 29681 ft 281 kts 289°
2026-05-07 11:05 61.32387 -11.21184 29681 ft 281 kts 289°
2026-05-07 11:05 61.33317 -11.24763 29681 ft 281 kts 289°
2026-05-07 11:05 61.34249 -11.28357 29687 ft 283 kts 288°
2026-05-07 11:05 61.35184 -11.31963 29686 ft 283 kts 290°
2026-05-07 11:06 61.36117 -11.35571 29685 ft 283 kts 291°
2026-05-07 11:06 61.37050 -11.39182 29685 ft 283 kts 290°
2026-05-07 11:06 61.37982 -11.42800 29685 ft 283 kts 290°
2026-05-07 11:06 61.38913 -11.46416 29685 ft 283 kts 291°
2026-05-07 11:07 61.39843 -11.50036 29685 ft 283 kts 288°
2026-05-07 11:07 61.40772 -11.53657 29686 ft 283 kts 287°
2026-05-07 11:07 61.41387 -11.56059 29687 ft 283 kts 287°
2026-05-07 11:07 61.42314 -11.59680 29696 ft 283 kts 287°
2026-05-07 11:08 61.43242 -11.63313 29723 ft 284 kts 287°
2026-05-07 11:08 61.44171 -11.66963 29722 ft 286 kts 287°
2026-05-07 11:08 61.45111 -11.70663 29722 ft 290 kts 288°
2026-05-07 11:08 61.46061 -11.74393 29725 ft 291 kts 290°
2026-05-07 11:09 61.47012 -11.78132 29721 ft 291 kts 291°
2026-05-07 11:09 61.47958 -11.81865 29724 ft 290 kts 291°
2026-05-07 11:09 61.48899 -11.85588 29722 ft 289 kts 290°
2026-05-07 11:09 61.49837 -11.89304 29722 ft 289 kts 289°
2026-05-07 11:10 61.50774 -11.93026 29731 ft 289 kts 287°
2026-05-07 11:10 61.51710 -11.96747 29731 ft 289 kts 287°
2026-05-07 11:10 61.52649 -12.00485 29750 ft 290 kts 287°
2026-05-07 11:10 61.53588 -12.04231 29752 ft 291 kts 287°
2026-05-07 11:11 61.54529 -12.07988 29776 ft 292 kts 288°
2026-05-07 11:11 61.55472 -12.11763 29753 ft 292 kts 290°
2026-05-07 11:11 61.56415 -12.15540 29754 ft 292 kts 290°
2026-05-07 11:11 61.57356 -12.19316 29757 ft 291 kts 293°
2026-05-07 11:12 61.58292 -12.23078 29753 ft 290 kts 293°
2026-05-07 11:12 61.59224 -12.26836 29765 ft 290 kts 292°
2026-05-07 11:12 61.60153 -12.30593 29763 ft 290 kts 292°
2026-05-07 11:12 61.61082 -12.34344 29780 ft 289 kts 293°
2026-05-07 11:13 61.62010 -12.38098 29782 ft 289 kts 293°
2026-05-07 11:13 61.62933 -12.41843 29780 ft 289 kts 290°
2026-05-07 11:13 61.63855 -12.45596 29777 ft 289 kts 289°
2026-05-07 11:13 61.64780 -12.49361 29776 ft 290 kts 290°
2026-05-07 11:14 61.65704 -12.53127 29782 ft 290 kts 292°
2026-05-07 11:14 61.66616 -12.56848 29789 ft 290 kts 291°
2026-05-07 11:14 61.67552 -12.60681 29788 ft 291 kts 290°
2026-05-07 11:14 61.68475 -12.64470 29788 ft 291 kts 291°
2026-05-07 11:15 61.69400 -12.68264 29789 ft 291 kts 291°
2026-05-07 11:15 61.70324 -12.72057 29813 ft 290 kts 293°
2026-05-07 11:15 61.71242 -12.75844 29810 ft 290 kts 293°
2026-05-07 11:15 61.72146 -12.79575 29810 ft 290 kts 293°
2026-05-07 11:16 61.73062 -12.83362 29807 ft 290 kts 291°
2026-05-07 11:16 61.73977 -12.87156 29805 ft 291 kts 291°
2026-05-07 11:16 61.74894 -12.90955 29829 ft 290 kts 294°
2026-05-07 11:16 61.75809 -12.94752 29823 ft 290 kts 295°
2026-05-07 11:17 61.76718 -12.98540 29822 ft 289 kts 295°
2026-05-07 11:17 61.77622 -13.02317 29822 ft 288 kts 295°
2026-05-07 11:17 61.78528 -13.06101 29844 ft 288 kts 295°
2026-05-07 11:17 61.79431 -13.09877 29843 ft 288 kts 295°
2026-05-07 11:18 61.80330 -13.13646 29842 ft 287 kts 295°
2026-05-07 11:18 61.81227 -13.17412 29841 ft 287 kts 295°
2026-05-07 11:18 61.82122 -13.21178 29840 ft 286 kts 295°
2026-05-07 11:18 61.83015 -13.24942 29848 ft 286 kts 295°
2026-05-07 11:19 61.83907 -13.28707 29847 ft 286 kts 295°
2026-05-07 11:19 61.84798 -13.32475 29847 ft 286 kts 295°
2026-05-07 11:19 61.85688 -13.36243 29847 ft 286 kts 295°
2026-05-07 11:19 61.86576 -13.40012 29846 ft 286 kts 295°
2026-05-07 11:20 61.87463 -13.43783 29865 ft 286 kts 295°
2026-05-07 11:20 61.88349 -13.47557 29866 ft 286 kts 296°
2026-05-07 11:20 61.89234 -13.51329 29866 ft 286 kts 295°
2026-05-07 11:20 61.90118 -13.55106 29865 ft 286 kts 295°
2026-05-07 11:21 61.91001 -13.58890 29872 ft 287 kts 295°
2026-05-07 11:21 61.91874 -13.62632 29872 ft 287 kts 295°
2026-05-07 11:21 61.92759 -13.66433 29872 ft 287 kts 295°
2026-05-07 11:21 61.93642 -13.70236 29874 ft 287 kts 295°
2026-05-07 11:22 61.94525 -13.74037 29872 ft 287 kts 295°
2026-05-07 11:22 61.95405 -13.77839 29876 ft 286 kts 297°
2026-05-07 11:22 61.96282 -13.81633 29899 ft 286 kts 297°
2026-05-07 11:22 61.97156 -13.85420 29899 ft 285 kts 297°
2026-05-07 11:23 61.98029 -13.89210 29898 ft 285 kts 297°
2026-05-07 11:23 61.98898 -13.92989 29903 ft 285 kts 297°
2026-05-07 11:23 61.99767 -13.96775 29903 ft 285 kts 297°
2026-05-07 11:23 62.00633 -14.00559 29903 ft 284 kts 297°
2026-05-07 11:24 62.01500 -14.04348 29900 ft 284 kts 297°
2026-05-07 11:24 62.02365 -14.08134 29899 ft 284 kts 297°
2026-05-07 11:24 62.03227 -14.11920 29899 ft 284 kts 297°
2026-05-07 11:24 62.04090 -14.15713 29899 ft 284 kts 297°
2026-05-07 11:25 62.04951 -14.19500 29919 ft 284 kts 296°
2026-05-07 11:25 62.05811 -14.23295 29919 ft 284 kts 296°
2026-05-07 11:25 62.06669 -14.27088 29930 ft 284 kts 296°
2026-05-07 11:25 62.07526 -14.30881 29929 ft 284 kts 297°
2026-05-07 11:26 62.08383 -14.34678 29922 ft 284 kts 297°
2026-05-07 11:26 62.09236 -14.38470 29926 ft 283 kts 298°
2026-05-07 11:26 62.10087 -14.42257 29927 ft 283 kts 297°
2026-05-07 11:26 62.10936 -14.46043 29927 ft 283 kts 297°
2026-05-07 11:27 62.11784 -14.49828 29927 ft 282 kts 297°
2026-05-07 11:27 62.12629 -14.53611 29943 ft 282 kts 297°
2026-05-07 11:27 62.13474 -14.57397 29943 ft 282 kts 297°
2026-05-07 11:27 62.14317 -14.61183 29943 ft 282 kts 297°
2026-05-07 11:28 62.15158 -14.64964 29952 ft 281 kts 299°
2026-05-07 11:28 62.15994 -14.68733 29955 ft 280 kts 299°
2026-05-07 11:28 62.16824 -14.72483 29956 ft 279 kts 299°
2026-05-07 11:28 62.17652 -14.76226 29955 ft 278 kts 299°
2026-05-07 11:29 62.18466 -14.79912 29957 ft 277 kts 299°
2026-05-07 11:29 62.19289 -14.83644 29956 ft 277 kts 299°
2026-05-07 11:29 62.20109 -14.87373 29954 ft 277 kts 299°
2026-05-07 11:29 62.20928 -14.91103 29967 ft 276 kts 299°
2026-05-07 11:30 62.21745 -14.94831 29963 ft 276 kts 299°
2026-05-07 11:30 62.22561 -14.98558 29962 ft 276 kts 299°
2026-05-07 11:30 62.23375 -15.02285 29962 ft 276 kts 299°
2026-05-07 11:30 62.24189 -15.06017 29961 ft 276 kts 299°
2026-05-07 11:31 62.25001 -15.09752 29958 ft 276 kts 299°
2026-05-07 11:31 62.25812 -15.13484 29958 ft 276 kts 298°
2026-05-07 11:31 62.26623 -15.17221 29958 ft 276 kts 298°
2026-05-07 11:31 62.27432 -15.20958 29958 ft 276 kts 298°
2026-05-07 11:32 62.29048 -15.28443 29973 ft 276 kts 298°
2026-05-07 11:32 62.29853 -15.32180 29987 ft 276 kts 297°
2026-05-07 11:32 62.30656 -15.35916 29988 ft 275 kts 297°
2026-05-07 11:33 62.31457 -15.39651 29989 ft 275 kts 298°
2026-05-07 11:33 62.32256 -15.43382 29988 ft 275 kts 297°
2026-05-07 11:33 62.33055 -15.47116 29986 ft 275 kts 297°
2026-05-07 11:33 62.33854 -15.50861 29984 ft 275 kts 296°
2026-05-07 11:34 62.34652 -15.54609 29980 ft 276 kts 296°
2026-05-07 11:34 62.35451 -15.58366 29981 ft 276 kts 296°
2026-05-07 11:34 62.36249 -15.62125 29984 ft 276 kts 297°
2026-05-07 11:34 62.37044 -15.65874 29986 ft 275 kts 297°
2026-05-07 11:35 62.37837 -15.69626 30013 ft 275 kts 297°
2026-05-07 11:35 62.38629 -15.73373 30013 ft 275 kts 297°
2026-05-07 11:35 62.39418 -15.77117 30013 ft 274 kts 297°
2026-05-07 11:35 62.40206 -15.80864 30013 ft 274 kts 297°
2026-05-07 11:36 62.40993 -15.84609 30012 ft 274 kts 297°
2026-05-07 11:36 62.41780 -15.88363 30009 ft 275 kts 296°
2026-05-07 11:36 62.42567 -15.92126 30008 ft 275 kts 296°
2026-05-07 11:36 62.43354 -15.95896 30007 ft 276 kts 296°
2026-05-07 11:37 62.44132 -15.99627 30007 ft 277 kts 296°
2026-05-07 11:37 62.44921 -16.03419 30013 ft 277 kts 296°
2026-05-07 11:37 62.45710 -16.07216 30025 ft 277 kts 296°
2026-05-07 11:37 62.46498 -16.11015 30025 ft 277 kts 296°
2026-05-07 11:38 62.47285 -16.14821 30026 ft 277 kts 296°
2026-05-07 11:38 62.48072 -16.18630 30027 ft 277 kts 296°
2026-05-07 11:38 62.48857 -16.22440 30030 ft 277 kts 297°
2026-05-07 11:38 62.49641 -16.26235 30033 ft 276 kts 296°
2026-05-07 11:39 62.50418 -16.30025 30029 ft 276 kts 295°
2026-05-07 11:39 62.51194 -16.33817 30029 ft 275 kts 295°
2026-05-07 11:39 62.51970 -16.37601 30028 ft 275 kts 295°
2026-05-07 11:39 62.52744 -16.41383 30035 ft 274 kts 296°
2026-05-07 11:40 62.53513 -16.45164 30048 ft 274 kts 296°
2026-05-07 11:40 62.54283 -16.48945 30048 ft 274 kts 296°
2026-05-07 11:40 62.55052 -16.52725 30048 ft 274 kts 296°
2026-05-07 11:40 62.55818 -16.56506 30048 ft 274 kts 296°
2026-05-07 11:41 62.56582 -16.60285 30048 ft 274 kts 296°
2026-05-07 11:41 62.57343 -16.64053 30053 ft 272 kts 297°
2026-05-07 11:41 62.58100 -16.67796 30056 ft 270 kts 297°
2026-05-07 11:41 62.58851 -16.71528 30056 ft 269 kts 297°
2026-05-07 11:42 62.59599 -16.75253 30060 ft 269 kts 297°
2026-05-07 11:42 62.60344 -16.78964 30059 ft 268 kts 297°
2026-05-07 11:42 62.61087 -16.82673 30071 ft 268 kts 297°
2026-05-07 11:42 62.61827 -16.86382 30068 ft 268 kts 297°
2026-05-07 11:43 62.62568 -16.90094 30067 ft 268 kts 297°
2026-05-07 11:43 62.63308 -16.93805 30067 ft 268 kts 297°
2026-05-07 11:43 62.64048 -16.97530 30061 ft 269 kts 296°
2026-05-07 11:43 62.64787 -17.01265 30064 ft 269 kts 296°
2026-05-07 11:44 62.65528 -17.05004 30069 ft 269 kts 297°
2026-05-07 11:44 62.66267 -17.08733 30072 ft 268 kts 297°
2026-05-07 11:44 62.67002 -17.12460 30075 ft 268 kts 297°
2026-05-07 11:44 62.67735 -17.16186 30075 ft 268 kts 297°
2026-05-07 11:45 62.68457 -17.19857 30078 ft 267 kts 297°
2026-05-07 11:45 62.69187 -17.23576 30095 ft 266 kts 297°
2026-05-07 11:45 62.69912 -17.27276 30093 ft 265 kts 297°
2026-05-07 11:45 62.70631 -17.30956 30076 ft 264 kts 297°
2026-05-07 11:46 62.71350 -17.34636 30075 ft 264 kts 297°
2026-05-07 11:46 62.72068 -17.38321 30073 ft 264 kts 296°
2026-05-07 11:46 62.72785 -17.42015 30072 ft 265 kts 296°
2026-05-07 11:46 62.73505 -17.45722 30074 ft 266 kts 296°
2026-05-07 11:47 62.74226 -17.49442 30081 ft 267 kts 296°
2026-05-07 11:47 62.74947 -17.53174 30081 ft 267 kts 296°
2026-05-07 11:47 62.75670 -17.56921 30081 ft 268 kts 296°
2026-05-07 11:47 62.76394 -17.60679 30093 ft 269 kts 296°
2026-05-07 11:48 62.77118 -17.64444 30093 ft 269 kts 295°
2026-05-07 11:48 62.77841 -17.68212 30096 ft 269 kts 295°
2026-05-07 11:48 62.78565 -17.71988 30096 ft 270 kts 295°
2026-05-07 11:48 62.79288 -17.75770 30096 ft 270 kts 295°
2026-05-07 11:49 62.80011 -17.79557 30099 ft 270 kts 295°
2026-05-07 11:49 62.80732 -17.83346 30102 ft 270 kts 295°
2026-05-07 11:49 62.81453 -17.87141 30102 ft 270 kts 295°
2026-05-07 11:49 62.82173 -17.90931 30103 ft 270 kts 295°
2026-05-07 11:50 62.82893 -17.94732 30107 ft 270 kts 295°
2026-05-07 11:50 62.83611 -17.98532 30108 ft 270 kts 295°
2026-05-07 11:50 62.84328 -18.02334 30117 ft 270 kts 295°
2026-05-07 11:50 62.85044 -18.06135 30117 ft 270 kts 295°
2026-05-07 11:51 62.85759 -18.09940 30113 ft 270 kts 295°
2026-05-07 11:51 62.86473 -18.13744 30114 ft 270 kts 295°
2026-05-07 11:51 62.87186 -18.17554 30115 ft 270 kts 295°
2026-05-07 11:51 62.87888 -18.21312 30103 ft 270 kts 295°
2026-05-07 11:52 62.88597 -18.25116 30109 ft 270 kts 295°
2026-05-07 11:52 62.89307 -18.28926 30109 ft 270 kts 295°
2026-05-07 11:52 62.90017 -18.32749 30110 ft 270 kts 295°
2026-05-07 11:52 62.90726 -18.36570 30110 ft 271 kts 295°
2026-05-07 11:53 62.91434 -18.40397 30118 ft 271 kts 295°
2026-05-07 11:53 62.92141 -18.44225 30119 ft 271 kts 295°
2026-05-07 11:53 62.92848 -18.48060 30119 ft 271 kts 295°
2026-05-07 11:53 62.93553 -18.51894 30119 ft 271 kts 295°
2026-05-07 11:54 62.94258 -18.55730 30116 ft 271 kts 295°
2026-05-07 11:54 62.94961 -18.59569 30119 ft 271 kts 295°
2026-05-07 11:54 62.95664 -18.63415 30119 ft 271 kts 295°
2026-05-07 11:54 62.96366 -18.67257 30119 ft 271 kts 295°
2026-05-07 11:55 62.97067 -18.71106 30123 ft 271 kts 295°
2026-05-07 11:55 62.97767 -18.74953 30123 ft 271 kts 295°
2026-05-07 11:55 62.98640 -18.78569 30126 ft 266 kts 305°
2026-05-07 11:55 62.99632 -18.82016 30127 ft 267 kts 304°
2026-05-07 11:56 63.00615 -18.85495 30128 ft 268 kts 304°
2026-05-07 11:56 63.01597 -18.88975 30129 ft 268 kts 304°
2026-05-07 11:56 63.02583 -18.92463 30130 ft 268 kts 304°
2026-05-07 11:56 63.03567 -18.95947 30131 ft 268 kts 304°
2026-05-07 11:57 63.04553 -18.99443 30134 ft 268 kts 304°
2026-05-07 11:57 63.05205 -19.01760 30135 ft 268 kts 304°
2026-05-07 11:57 63.06520 -19.06442 30135 ft 268 kts 304°
2026-05-07 11:57 63.07170 -19.08759 30135 ft 269 kts 304°
2026-05-07 11:58 63.08152 -19.12263 30139 ft 268 kts 304°
2026-05-07 11:58 63.09132 -19.15765 30140 ft 268 kts 304°
2026-05-07 11:58 63.10110 -19.19268 30124 ft 268 kts 304°
2026-05-07 11:58 63.11089 -19.22777 30126 ft 269 kts 304°
2026-05-07 11:59 63.12070 -19.26297 30126 ft 269 kts 304°
2026-05-07 11:59 63.13051 -19.29828 30127 ft 270 kts 304°
2026-05-07 11:59 63.14032 -19.33363 30127 ft 270 kts 304°
2026-05-07 11:59 63.15014 -19.36904 30126 ft 270 kts 304°
2026-05-07 12:00 63.15995 -19.40449 30130 ft 270 kts 304°
2026-05-07 12:00 63.16977 -19.44003 30133 ft 270 kts 304°
2026-05-07 12:00 63.17956 -19.47553 30139 ft 270 kts 304°
2026-05-07 12:00 63.18936 -19.51109 30135 ft 270 kts 304°
2026-05-07 12:01 63.19913 -19.54664 30141 ft 270 kts 304°
2026-05-07 12:01 63.20891 -19.58225 30141 ft 271 kts 304°
2026-05-07 12:01 63.21869 -19.61794 30136 ft 271 kts 304°
2026-05-07 12:01 63.22845 -19.65360 30137 ft 271 kts 303°
2026-05-07 12:02 63.23825 -19.68945 29983 ft 275 kts 303°
2026-05-07 12:02 63.24839 -19.72656 29520 ft 285 kts 303°
2026-05-07 12:02 63.25867 -19.76429 29065 ft 286 kts 303°
2026-05-07 12:02 63.26880 -19.80162 28622 ft 287 kts 303°
2026-05-07 12:03 63.27911 -19.83960 28173 ft 287 kts 303°
2026-05-07 12:03 63.28942 -19.87763 27719 ft 287 kts 303°
2026-05-07 12:03 63.29973 -19.91573 27290 ft 288 kts 303°
2026-05-07 12:03 63.31003 -19.95387 26856 ft 288 kts 303°
2026-05-07 12:04 63.32031 -19.99203 26444 ft 288 kts 303°
2026-05-07 12:04 63.33058 -20.03019 26028 ft 288 kts 303°
2026-05-07 12:04 63.34100 -20.06896 25611 ft 287 kts 303°
2026-05-07 12:04 63.35110 -20.10661 25212 ft 287 kts 303°
2026-05-07 12:05 63.36133 -20.14482 24810 ft 287 kts 303°
2026-05-07 12:05 63.37154 -20.18303 24417 ft 287 kts 303°
2026-05-07 12:05 63.38172 -20.22120 24030 ft 286 kts 303°
2026-05-07 12:05 63.39189 -20.25936 23619 ft 286 kts 303°
2026-05-07 12:06 63.40306 -20.29557 23146 ft 281 kts 314°
2026-05-07 12:06 63.41690 -20.32602 22699 ft 279 kts 317°
2026-05-07 12:06 63.43084 -20.35632 22250 ft 279 kts 317°
2026-05-07 12:06 63.44471 -20.38671 21810 ft 279 kts 317°
2026-05-07 12:07 63.45857 -20.41709 21377 ft 279 kts 317°
2026-05-07 12:07 63.47241 -20.44740 20949 ft 278 kts 317°
2026-05-07 12:07 63.48623 -20.47770 20528 ft 278 kts 317°
2026-05-07 12:07 63.50001 -20.50798 20115 ft 277 kts 317°
2026-05-07 12:08 63.51374 -20.53821 19702 ft 276 kts 318°
2026-05-07 12:08 63.52740 -20.56832 19300 ft 275 kts 318°
2026-05-07 12:08 63.54098 -20.59828 18904 ft 273 kts 318°
2026-05-07 12:08 63.55447 -20.62810 18529 ft 272 kts 318°
2026-05-07 12:09 63.56786 -20.65774 18084 ft 270 kts 319°
2026-05-07 12:09 63.58118 -20.68725 17633 ft 268 kts 318°
2026-05-07 12:09 63.59446 -20.71672 17189 ft 268 kts 319°
2026-05-07 12:09 63.60769 -20.74611 16752 ft 267 kts 318°
2026-05-07 12:10 63.62093 -20.77558 16326 ft 268 kts 318°
2026-05-07 12:10 63.63422 -20.80519 15908 ft 270 kts 318°
2026-05-07 12:10 63.64755 -20.83493 15491 ft 271 kts 318°
2026-05-07 12:10 63.66096 -20.86491 15082 ft 272 kts 318°
2026-05-07 12:11 63.67437 -20.89493 14680 ft 271 kts 318°
2026-05-07 12:11 63.68771 -20.92482 14278 ft 270 kts 318°
2026-05-07 12:11 63.70104 -20.95474 13868 ft 270 kts 318°
2026-05-07 12:11 63.71387 -20.98536 13430 ft 269 kts 312°
2026-05-07 12:12 63.72511 -21.01934 12988 ft 270 kts 308°
2026-05-07 12:12 63.73613 -21.05365 12546 ft 270 kts 310°
2026-05-07 12:12 63.74761 -21.08707 12114 ft 268 kts 312°
2026-05-07 12:12 63.75913 -21.11997 11681 ft 267 kts 311°
2026-05-07 12:13 63.77054 -21.15311 11257 ft 268 kts 310°
2026-05-07 12:13 63.78187 -21.18639 10848 ft 266 kts 311°
2026-05-07 12:13 63.79316 -21.21949 10438 ft 265 kts 311°
2026-05-07 12:13 63.80442 -21.25244 10036 ft 265 kts 311°
2026-05-07 12:14 63.81551 -21.28495 9599 ft 264 kts 311°
2026-05-07 12:14 63.82671 -21.31789 9153 ft 264 kts 311°
2026-05-07 12:14 63.83802 -21.35118 8720 ft 263 kts 311°
2026-05-07 12:14 63.84900 -21.38355 8297 ft 263 kts 311°
2026-05-07 12:15 63.86013 -21.41639 7872 ft 262 kts 311°
2026-05-07 12:15 63.87122 -21.44919 7454 ft 262 kts 312°
2026-05-07 12:15 63.88229 -21.48196 7041 ft 261 kts 312°
2026-05-07 12:15 63.89332 -21.51465 6636 ft 261 kts 311°
2026-05-07 12:16 63.90432 -21.54732 6200 ft 260 kts 312°
2026-05-07 12:16 63.91527 -21.57990 5760 ft 259 kts 311°
2026-05-07 12:16 63.92618 -21.61237 5332 ft 258 kts 311°
2026-05-07 12:16 63.93679 -21.64482 5082 ft 251 kts 306°
2026-05-07 12:17 63.94386 -21.68114 4746 ft 253 kts 288°
2026-05-07 12:17 63.94593 -21.72003 4329 ft 243 kts 271°
2026-05-07 12:17 63.94462 -21.75735 3917 ft 231 kts 268°
2026-05-07 12:17 63.94335 -21.79319 3515 ft 224 kts 269°
2026-05-07 12:18 63.94397 -21.82756 3109 ft 212 kts 287°
2026-05-07 12:18 63.94885 -21.85704 3079 ft 188 kts 304°
2026-05-07 12:18 63.95625 -21.87957 3082 ft 169 kts 320°
2026-05-07 12:18 63.96513 -21.89567 2990 ft 161 kts 335°
2026-05-07 12:19 63.97545 -21.90619 2697 ft 165 kts 348°
2026-05-07 12:19 63.98672 -21.91076 2417 ft 164 kts
2026-05-07 12:19 63.99764 -21.90924 2394 ft 151 kts
2026-05-07 12:19 64.00806 -21.90901 2272 ft 151 kts 359°
2026-05-07 12:20 64.01855 -21.91293 2063 ft 154 kts 353°
2026-05-07 12:20 64.02909 -21.91794 1895 ft 156 kts 353°
2026-05-07 12:20 64.03928 -21.92186 1847 ft 141 kts 356°
2026-05-07 12:20 64.04889 -21.92324 1669 ft 137 kts
2026-05-07 12:21 64.05759 -21.92422 1514 ft 111 kts
2026-05-07 12:21 64.06434 -21.92559 1483 ft 93 kts 358°
2026-05-07 12:21 64.07074 -21.92793 1237 ft 91 kts
2026-05-07 12:21 64.07688 -21.92839 1044 ft 88 kts
2026-05-07 12:22 64.08322 -21.92916 910 ft 93 kts 359°
2026-05-07 12:22 64.08974 -21.93051 780 ft 96 kts
2026-05-07 12:22 64.09650 -21.93159 726 ft 94 kts 359°
2026-05-07 12:22 64.10267 -21.93295 543 ft 84 kts
2026-05-07 12:23 64.10863 -21.93365 416 ft 92 kts
2026-05-07 12:23 64.11572 -21.93519 221 ft 113 kts 355°
2026-05-07 12:23 64.12358 -21.93645 64 ft 107 kts 359°
2026-05-07 12:23 64.12991 -21.93779 68 ft 81 kts 359°
2026-05-07 12:24 64.13671 -21.93911 268 ft 113 kts 356°
2026-05-07 12:24 64.14522 -21.94089 769 ft 131 kts 359°
2026-05-07 12:24 64.15527 -21.94311 1125 ft 161 kts 351°
2026-05-07 12:24 64.16582 -21.95553 1379 ft 178 kts 321°
2026-05-07 12:25 64.17186 -21.98016 1288 ft 185 kts 284°
2026-05-07 12:25 64.16950 -22.00897 1226 ft 189 kts 242°
2026-05-07 12:25 64.15997 -22.02837 1156 ft 187 kts 201°
2026-05-07 12:25 64.14721 -22.03370 980 ft 186 kts 179°
2026-05-07 12:26 64.13389 -22.03320 1072 ft 194 kts 175°
2026-05-07 12:26 64.12066 -22.03223 1145 ft 190 kts 174°
2026-05-07 12:26 64.10750 -22.03012 1169 ft 190 kts 172°
2026-05-07 12:26 64.09427 -22.02821 1214 ft 190 kts 172°
2026-05-07 12:27 64.08253 -22.01813 1278 ft 177 kts 129°
2026-05-07 12:27 64.07767 -21.99396 1224 ft 166 kts 86°
2026-05-07 12:27 64.07814 -21.96779 1103 ft 165 kts 74°
2026-05-07 12:27 64.08249 -21.94761 1173 ft 124 kts 35°
2026-05-07 12:28 64.08938 -21.93910 957 ft 103 kts 22°
2026-05-07 12:28 64.09606 -21.93405 762 ft 101 kts 15°
2026-05-07 12:28 64.10284 -21.93322 578 ft 98 kts
2026-05-07 12:28 64.10955 -21.93405 371 ft 95 kts
2026-05-07 12:29 64.11589 -21.93525 187 ft 90 kts 356°
2026-05-07 12:29 64.12245 -21.93630 62 ft 97 kts 357°
2026-05-07 12:29 64.12845 -21.93740 42 ft 67 kts 355°
2026-05-07 12:29 64.13019 -21.93779 44 ft 12 kts 356°
2026-05-07 12:30 64.13080 -21.93788 45 ft 5 kts 356°
2026-05-07 12:30 64.13113 -21.93693 44 ft 10 kts 121°
2026-05-07 12:30 64.13089 -21.93608 44 ft 2 kts 135°
2026-05-07 12:30 64.13073 -21.93569 43 ft 0 kts 124°
2026-05-07 12:33 64.13072 -21.93564 43 ft 2 kts 124°
2026-05-07 12:33 64.13060 -21.93527 43 ft 1 kts 127°
2026-05-07 12:34 64.13046 -21.93469 43 ft 8 kts 104°
2026-05-07 12:34 64.13032 -21.93406 43 ft 2 kts 162°
2026-05-07 12:34 64.13021 -21.93403 43 ft 0 kts 176°